Terug naar catalogus

FENGYUN 1C DEB

ActiefSSO
NORAD 30820·DEBRIS·🇨🇳 China

Gelanceerd May 10, 1999 vanaf Taiyuan Satellite Launch Center

Loading…

Volgende Passages (komende 24 uur)

TLE

VersSource: Space-Track

Epoch: Sep 14, 2026, 05:01 UTC

1 30820U 99025AVE 26257.20952388  .00002535  00000-0  11220-2 0  9990
2 30820  98.6761 354.1996 0052224 111.2864 279.0306 14.23311239  3387

Volg FENGYUN 1C DEB in realtime met AllMySat

Download on the App Store